[[{"header":{"parameterUnit":"m.s-1","parameterCategory":1,"la1":30.2991,"la2":30.254,"lo1":-89.0895,"lo2":-89.0444,"dy":0.0017,"dx":0.0017,"nx":28,"ny":28,"refTime":"2025-03-21T21:00:00:Z","depth":0,"parameterNumber":2,"parameterNumberName":"U-component_of_WINDS"},"data":[0,0,0,0,0,0,0,0,0,0,0,0,0,0,0,0,0,0,0,0,0,0,0,0,0,0,0,0,0,0,0,0,0,0,0,0,0,0,0,0,0,0,0,0,0,0,0,0,0,0,0,0,0,0,0,0,0,0,-1.1603,-1.1602,0,-1.1528,-1.1527,-1.1526,-1.1483,-1.1482,-1.1482,-1.1482,-1.1407,-1.1405,-1.1403,0,0,0,0,0,0,0,0,0,0,0,0,0,-1.1711,-1.1709,-1.1603,-1.1602,-1.1601,-1.1528,-1.1527,-1.1526,-1.1483,-1.1482,-1.1482,-1.1482,-1.1407,-1.1405,-1.1403,0,0,0,0,0,0,0,0,0,0,0,0,0,-1.1653,-1.1709,-1.1603,-1.1571,-1.1567,-1.1528,-1.1527,-1.1526,-1.1483,-1.1482,-1.1482,-1.1482,-1.1408,-1.1405,-1.1403,-1.1391,0,0,-1.1394,-1.1393,0,0,0,0,0,0,0,0,-1.1656,-1.1649,-1.1577,-1.1573,-1.1569,-1.1514,-1.1537,-1.1481,-1.1483,-1.1515,-1.1482,-1.1482,-1.1443,-1.1437,-1.1424,-1.1387,-1.1384,-1.1394,-1.1392,-1.1391,-1.139,0,0,0,0,0,0,0,-1.166,-1.1652,-1.1574,-1.1576,-1.1571,-1.1561,-1.1552,-1.1527,-1.1481,-1.1512,-1.1509,-1.15,-1.1441,-1.1426,-1.1422,-1.1383,-1.1394,-1.1392,-1.139,-1.1389,-1.1333,-1.1334,0,0,0,0,0,0,-1.1669,-1.1656,-1.1576,-1.1571,-1.1613,-1.1559,-1.1549,-1.1532,-1.1481,-1.1473,-1.15,-1.1498,-1.1431,-1.1425,-1.1419,-1.1401,-1.1391,-1.1388,-1.1387,-1.1333,-1.1334,-1.1334,0,0,0,0,0,0,-1.1672,-1.1663,-1.1579,-1.1613,-1.1601,-1.1557,-1.1538,-1.1531,-1.1516,-1.1473,-1.1465,-1.1494,-1.1431,-1.1423,-1.1398,-1.1398,-1.1387,-1.1385,-1.1333,-1.1333,-1.1334,-1.1367,0,0,0,0,0,0,-1.1675,-1.1664,-1.1659,-1.1613,-1.1599,-1.1559,-1.1538,-1.153,-1.1512,-1.1508,-1.1465,-1.1457,-1.143,-1.1402,-1.1395,-1.1394,-1.1383,-1.1333,-1.1333,-1.1334,-1.1366,-1.1368,-1.1371,0,0,0,0,0,-1.1679,-1.1671,-1.1658,-1.1649,-1.1592,-1.1559,-1.1552,-1.152,-1.1512,-1.1506,-1.1478,-1.1459,-1.14,-1.14,-1.1392,-1.139,-1.1333,-1.1333,-1.1334,-1.1364,-1.1368,-1.1371,0,0,0,0,0,0,-1.1719,-1.1665,-1.165,-1.1627,-1.1598,-1.1552,-1.1544,-1.1525,-1.1498,-1.1496,-1.1458,-1.1449,-1.1428,-1.1406,-1.1408,-1.1376,-1.1364,-1.1363,-1.139,-1.1393,-1.1396,-1.1401,-1.138,0,0,0,0,0,-1.1725,-1.1702,-1.1656,-1.1641,-1.1627,-1.1588,-1.1573,-1.1551,-1.1519,-1.1507,-1.1477,-1.1448,-1.1423,-1.1407,-1.1381,-1.1363,-1.1353,-1.1357,-1.136,-1.1362,-1.1361,-1.135,-1.1351,-1.1335,-1.1335,-1.1335,0,0,-1.1737,-1.1705,-1.1693,-1.1648,-1.1623,-1.16,-1.1578,-1.1556,-1.1539,-1.1504,-1.1478,-1.1456,-1.1421,-1.1399,-1.1388,-1.1381,-1.1364,-1.1363,-1.1365,-1.1363,-1.135,-1.1352,-1.1353,-1.1335,-1.1335,-1.1335,0,0,-1.1748,-1.1721,-1.1705,-1.168,-1.1642,-1.1617,-1.1613,-1.157,-1.1553,-1.1527,-1.15,-1.148,-1.1438,-1.1414,-1.1396,-1.1398,-1.1379,-1.1391,-1.1404,-1.1393,-1.1394,-1.1395,-1.1395,-1.1396,-1.1391,-1.1391,-1.1391,0,-1.1768,-1.1733,-1.1699,-1.1678,-1.1659,-1.1626,-1.1609,-1.1587,-1.1543,-1.1531,-1.1524,-1.147,-1.1444,-1.1416,-1.1416,-1.1403,-1.1398,-1.1395,-1.1397,-1.1397,-1.1398,-1.1397,-1.1398,-1.1392,-1.1392,-1.1392,-1.1392,0,-1.1759,-1.1736,-1.1727,-1.1684,-1.1665,-1.1646,-1.161,-1.1594,-1.1574,-1.155,-1.1524,-1.1492,-1.1459,-1.1451,-1.1432,-1.142,-1.1417,-1.1404,-1.139,-1.1401,-1.14,-1.14,-1.1395,-1.1394,-1.1394,-1.1393,0,0,-1.1792,-1.1731,-1.1729,-1.1709,-1.1665,-1.1646,-1.1626,-1.1594,-1.1581,-1.1552,-1.1534,-1.1499,-1.1487,-1.1467,-1.1445,-1.1435,-1.1438,-1.1423,-1.1422,-1.1426,-1.1423,-1.1433,-1.1433,-1.1426,-1.1426,-1.1426,-1.1426,0,-1.1796,-1.1758,-1.1727,-1.17,-1.1678,-1.1646,-1.1629,-1.1601,-1.1577,-1.1555,-1.153,-1.1505,-1.1491,-1.1478,-1.1468,-1.144,-1.1437,-1.144,-1.1409,-1.1408,-1.1418,-1.1433,-1.1443,-1.1445,-1.1426,-1.1426,-1.1426,0,-1.1795,-1.1767,-1.1738,-1.1695,-1.1685,-1.167,-1.1637,-1.1617,-1.1584,-1.1568,-1.1546,-1.1523,-1.1501,-1.1491,-1.146,-1.1463,-1.1448,-1.1433,-1.1432,-1.1428,-1.1417,-1.1428,-1.1445,-1.1445,-1.1425,-1.1425,-1.1425,0,-1.1822,-1.1776,-1.1752,-1.1737,-1.1687,-1.1677,-1.1656,-1.1623,-1.1606,-1.1578,-1.1566,-1.1536,-1.152,-1.1498,-1.1468,-1.1463,-1.144,-1.1428,-1.1426,-1.1427,-1.1422,-1.1422,-1.1436,-1.1414,-1.1414,-1.1414,-1.1414,0,-1.1829,-1.1812,-1.1763,-1.1749,-1.1729,-1.1695,-1.1676,-1.1653,-1.1624,-1.1605,-1.1577,-1.1559,-1.1521,-1.1499,-1.1476,-1.1454,-1.1447,-1.1433,-1.1427,-1.1435,-1.1437,-1.1425,-1.1423,-1.1414,-1.1414,-1.1414,-1.1414,0,-1.1854,-1.1821,-1.1793,-1.1749,-1.1737,-1.1725,-1.1687,-1.1672,-1.1647,-1.1623,-1.1616,-1.1577,-1.155,-1.1518,-1.1481,-1.1465,-1.1445,-1.1436,-1.1456,-1.1452,-1.1452,-1.1452,-1.1457,-1.1456,-1.1436,-1.1436,-1.1437,0,-1.186,-1.1847,-1.18,-1.1785,-1.1765,-1.1741,-1.1722,-1.1688,-1.167,-1.1632,-1.1621,-1.1592,-1.1567,-1.1525,-1.1494,-1.1466,-1.1456,-1.146,-1.1451,-1.146,-1.1455,-1.1456,-1.1454,-1.1462,-1.1462,-1.1462,-1.1462,0,-1.1875,-1.1859,-1.1833,-1.1801,-1.178,-1.1754,-1.1726,-1.1716,-1.1676,-1.1658,-1.1629,-1.1609,-1.1571,-1.1543,-1.151,-1.1489,-1.1469,-1.1465,-1.1463,-1.1471,-1.1483,-1.1476,-1.1461,-1.1465,-1.1465,-1.1465,-1.1465,-1.1465,-1.189,-1.1877,-1.1842,-1.1814,-1.1789,-1.1764,-1.1748,-1.1721,-1.1696,-1.1662,-1.1643,-1.1615,-1.1583,-1.1537,-1.1517,-1.1495,-1.1488,-1.1486,-1.1485,-1.1485,-1.1487,-1.1487,-1.149,-1.1489,-1.1489,-1.1489,-1.1489,0,-1.1903,-1.1879,-1.1853,-1.1815,-1.1794,-1.1776,-1.1745,-1.1728,-1.1703,-1.1675,-1.165,-1.1618,-1.159,-1.1557,-1.1527,-1.1516,-1.1506,-1.1509,-1.1509,-1.1504,-1.1495,-1.1499,-1.1517,-1.1517,-1.1517,-1.1517,-1.1517,-1.1517,-1.1907,-1.1882,-1.1862,-1.1825,-1.1802,-1.1773,-1.1757,-1.1734,-1.171,-1.1675,-1.1651,-1.163,-1.1599,-1.1567,-1.1541,-1.1532,-1.1522,-1.1528,-1.1516,-1.1508,-1.1505,-1.1503,-1.1507,-1.1526,-1.1526,-1.1527,-1.1527,-1.1527]},{"header":{"parameterUnit":"m.s-1","parameterCategory":1,"la1":30.2991,"la2":30.254,"lo1":-89.0895,"lo2":-89.0444,"dy":0.0017,"dx":0.0017,"nx":28,"ny":28,"refTime":"2025-03-21T21:00:00:Z","depth":0,"parameterNumber":3,"parameterNumberName":"V-component_of_WINDS"},"data":[0,0,0,0,0,0,0,0,0,0,0,0,0,0,0,0,0,0,0,0,0,0,0,0,0,0,0,0,0,0,0,0,0,0,0,0,0,0,0,0,0,0,0,0,0,0,0,0,0,0,0,0,0,0,0,0,0,0,6.0541,6.0541,0,6.0534,6.0534,6.0534,6.0493,6.0492,6.0491,6.049,6.048,6.0481,6.0481,0,0,0,0,0,0,0,0,0,0,0,0,0,6.0517,6.0518,6.0541,6.0541,6.054,6.0534,6.0534,6.0534,6.0493,6.0492,6.049,6.0489,6.048,6.0481,6.0481,0,0,0,0,0,0,0,0,0,0,0,0,0,6.052,6.0518,6.0541,6.0519,6.0517,6.0534,6.0534,6.0534,6.0493,6.0492,6.049,6.0489,6.048,6.048,6.0481,6.0517,0,0,6.0484,6.0485,0,0,0,0,0,0,0,0,6.052,6.0521,6.0523,6.0521,6.0519,6.0513,6.0522,6.0528,6.0493,6.0502,6.049,6.0488,6.0492,6.0492,6.0494,6.0516,6.0516,6.0485,6.0485,6.0486,6.0486,0,0,0,0,0,0,0,6.052,6.0521,6.0538,6.0523,6.052,6.051,6.0509,6.0523,6.0505,6.0501,6.0498,6.0498,6.049,6.0493,6.0493,6.0516,6.0484,6.0485,6.0486,6.0486,6.057,6.0571,0,0,0,0,0,0,6.0523,6.0521,6.0538,6.0538,6.0516,6.0511,6.051,6.0516,6.0505,6.0502,6.05,6.0496,6.0492,6.0492,6.0493,6.0535,6.0486,6.0486,6.0487,6.0568,6.057,6.0572,0,0,0,0,0,0,6.0523,6.0525,6.0538,6.0529,6.053,6.0513,6.052,6.0517,6.0519,6.0504,6.05,6.0505,6.0491,6.0491,6.0512,6.0534,6.0487,6.0488,6.0566,6.0569,6.0571,6.0618,0,0,0,0,0,0,6.0522,6.0525,6.0538,6.0529,6.053,6.0558,6.0522,6.0518,6.0521,6.0517,6.0508,6.0505,6.049,6.0511,6.0513,6.0534,6.0489,6.0564,6.0567,6.057,6.0615,6.0622,6.0628,0,0,0,0,0,6.0521,6.0551,6.0539,6.0541,6.0547,6.0559,6.056,6.0542,6.0523,6.0536,6.0527,6.0505,6.0531,6.0513,6.0515,6.0537,6.0563,6.0566,6.057,6.0612,6.0621,6.0628,0,0,0,0,0,0,6.0561,6.0549,6.0536,6.0564,6.0563,6.0552,6.0568,6.0552,6.0556,6.0552,6.0529,6.0527,6.0551,6.0546,6.0526,6.0572,6.0543,6.0548,6.0574,6.0583,6.0589,6.059,6.0489,0,0,0,0,0,6.0573,6.0585,6.0574,6.0599,6.06,6.0585,6.0589,6.0576,6.0574,6.0573,6.0565,6.0563,6.0571,6.0577,6.0583,6.0614,6.0612,6.063,6.0637,6.0643,6.0647,6.0664,6.0673,6.0584,6.0584,6.0584,0,0,6.0598,6.0593,6.0601,6.0607,6.0605,6.0618,6.0584,6.0599,6.0608,6.0575,6.0594,6.0589,6.0586,6.0612,6.0623,6.0609,6.0671,6.0648,6.0652,6.0653,6.0669,6.0677,6.0685,6.0586,6.0586,6.0585,0,0,6.0649,6.0647,6.0668,6.0668,6.0666,6.0656,6.0662,6.0654,6.065,6.067,6.0646,6.0656,6.067,6.0669,6.067,6.0725,6.0706,6.0728,6.0763,6.078,6.0787,6.0794,6.0814,6.0821,6.0732,6.0732,6.0732,0,6.068,6.0699,6.0681,6.0698,6.0702,6.0675,6.0697,6.0697,6.0697,6.07,6.0683,6.0702,6.0697,6.0724,6.0738,6.074,6.0745,6.0728,6.0788,6.0794,6.0799,6.0818,6.0826,6.0734,6.0734,6.0734,6.0734,0,6.0737,6.0751,6.0768,6.0771,6.0777,6.0796,6.0782,6.0789,6.0776,6.0768,6.079,6.0784,6.079,6.0795,6.0781,6.0821,6.0812,6.0792,6.0763,6.0811,6.0829,6.0836,6.0738,6.0737,6.0737,6.0736,0,0,6.0811,6.0806,6.0813,6.0815,6.0812,6.0822,6.0841,6.0848,6.0856,6.0857,6.0872,6.0886,6.0869,6.087,6.0857,6.0872,6.0917,6.0851,6.0851,6.0864,6.0961,6.0976,6.0985,6.0905,6.0906,6.0907,6.0962,0,6.0861,6.0893,6.088,6.0913,6.0926,6.0902,6.0919,6.0919,6.0913,6.0922,6.0915,6.0925,6.0901,6.0903,6.0917,6.0909,6.0937,6.0905,6.0919,6.092,6.092,6.0994,6.1009,6.106,6.0968,6.0969,6.097,0,6.0923,6.093,6.0965,6.0963,6.0968,6.0983,6.0989,6.0999,6.0999,6.0994,6.0997,6.0981,6.0999,6.0971,6.0996,6.0975,6.098,6.0977,6.0979,6.0979,6.0948,6.0996,6.1076,6.1084,6.0981,6.098,6.0979,0,6.0975,6.0992,6.1016,6.1019,6.1016,6.1027,6.1027,6.1025,6.1031,6.1037,6.104,6.1048,6.1051,6.1057,6.1043,6.1024,6.1071,6.1041,6.1067,6.1067,6.1077,6.1076,6.1159,6.108,6.108,6.108,6.108,0,6.1032,6.1055,6.104,6.1055,6.108,6.1064,6.1089,6.1086,6.1086,6.1099,6.1079,6.1092,6.1073,6.1084,6.1073,6.1096,6.1098,6.1094,6.1091,6.1096,6.1097,6.1099,6.1095,6.1082,6.1082,6.1081,6.1081,0,6.1093,6.1084,6.1109,6.1106,6.1105,6.1124,6.1121,6.1134,6.1128,6.1145,6.1149,6.1138,6.115,6.1138,6.1148,6.1141,6.1173,6.1164,6.1173,6.1171,6.1197,6.1195,6.1284,6.1295,6.1209,6.121,6.1211,0,6.113,6.1148,6.1147,6.1156,6.1157,6.1171,6.1177,6.1163,6.1171,6.1174,6.1187,6.1199,6.1207,6.1228,6.122,6.1229,6.1221,6.1251,6.1222,6.1227,6.1222,6.1221,6.1223,6.1257,6.1258,6.1259,6.126,0,6.1197,6.1193,6.1204,6.1214,6.1224,6.123,6.1236,6.1244,6.1229,6.1239,6.1252,6.1259,6.1272,6.1283,6.1291,6.1289,6.1272,6.1269,6.1276,6.1281,6.1286,6.1284,6.119,6.1267,6.1266,6.1266,6.1265,6.1265,6.1248,6.1263,6.1266,6.128,6.1283,6.1289,6.1302,6.1298,6.131,6.132,6.1311,6.1328,6.1329,6.1337,6.1338,6.1351,6.1338,6.1347,6.1349,6.1352,6.1356,6.1284,6.1352,6.1352,6.1351,6.1351,6.1351,0,6.1315,6.1316,6.1329,6.1338,6.1349,6.1335,6.134,6.135,6.1366,6.1369,6.1379,6.1395,6.1407,6.1402,6.1412,6.1423,6.1416,6.1426,6.1425,6.1425,6.1367,6.1361,6.1432,6.1432,6.1432,6.1432,6.1432,6.1432,6.1351,6.1376,6.1373,6.14,6.1401,6.1418,6.1423,6.1429,6.1432,6.1452,6.1462,6.1459,6.1459,6.147,6.148,6.1478,6.1483,6.1497,6.1492,6.1437,6.1429,6.1422,6.1416,6.1498,6.1498,6.155,6.155,6.155]}]]